Location: Mount Graham
(32.7016°N, 109.8912°W)
Time: 18:26:36
(UTC-07:00)

Cosmos 1340 - Visible Passes

Search period start: 20 April 2015 00:00
Search period end: 30 April 2015 00:00
Orbit: 515 x 519 km, 81.2° (Epoch: 19 April)

Date Brightness Start Highest point End Pass type
(mag) Time Alt. Az. Time Alt. Az. Time Alt. Az.
20 Apr 4.1 20:29:26 10° NNW 20:33:00 37° W 20:36:08 12° SSW visible
21 Apr 3.8 20:14:51 10° NNW 20:18:33 44° W 20:22:13 10° SSW visible
22 Apr 3.4 20:00:17 10° NNW 20:04:04 55° W 20:07:49 10° S visible
23 Apr 3.1 19:45:45 10° NNW 19:49:35 68° W 19:53:24 10° S visible
24 Apr 2.8 19:31:14 10° N 19:35:05 83° W 19:38:56 10° S visible
25 Apr 2.7 19:16:43 10° N 19:20:35 81° E 19:24:25 10° S visible
29 Apr 6.3 19:57:18 10° W 19:57:58 10° W 19:58:22 10° W visible
